Date String (YYYY-MM-DD hh:mm:ss) UTC,Instrument flags,Ambient pressure (hPa),Sample flow (lpm),Bypass flow (lpm),Sample temperature (°C),Ambient temperature (°C),ASC tube jacket temperature (°C),LED temperature (°C),Box temperature (°C),Sample RH (%),Span deviation,Mass concentration (μg/m³),Mass concentration (μg/m³),Mass concentration (μg/m³)
DateTimeUTC,F1_M11,P_M11,Q1_M11,Q2_M11,T1_M11,T2_M11,T3_M11,T4_M11,T5_M11,U1_M11,ZSPAN_M11,X0_M11,X2_M11,X1_M11
2022-09-29 00:00:00,,0830.9,4.99,0.00,29.8,26.6,00.0,38.4,31.6,17.8,0000.0,0016.94,0004.94,0003.64
2022-09-29 00:01:00,,0830.8,5.00,0.00,29.7,26.9,00.0,38.4,31.4,18.5,0000.0,0017.18,0004.97,0003.65
2022-09-29 00:02:00,,0830.9,5.00,0.00,29.7,27.3,00.0,38.3,31.4,18.6,0000.0,0016.70,0004.98,0003.65
2022-09-29 00:03:00,,0830.9,4.99,0.00,29.7,27.6,00.0,38.3,31.5,18.0,0000.0,0017.80,0004.99,0003.65
2022-09-29 00:04:00,,0830.9,5.01,0.00,29.7,27.9,00.0,38.3,31.6,18.0,0000.0,0017.59,0004.95,0003.66
2022-09-29 00:05:00,,0830.8,4.99,0.00,29.7,28.1,00.0,38.3,31.7,18.1,0000.0,0017.34,0004.95,0003.66
2022-09-29 00:06:00,,0830.8,5.01,0.00,29.8,28.3,00.0,38.4,31.7,18.2,0000.0,0018.18,0005.05,0003.67
2022-09-29 00:07:00,,0830.8,4.99,0.00,29.8,28.5,00.0,38.4,31.7,17.9,0000.0,0019.12,0005.05,0003.68
2022-09-29 00:08:00,,0830.8,5.00,0.00,29.8,28.7,00.0,38.4,31.8,17.8,0000.0,0018.43,0005.06,0003.68
2022-09-29 00:09:00,,0830.7,5.01,0.00,29.9,28.8,00.0,38.4,31.9,17.6,0000.0,0019.10,0005.07,0003.69
2022-09-29 00:10:00,,0830.8,5.00,0.00,29.9,28.8,00.0,38.5,31.9,17.6,0000.0,0019.28,0005.04,0003.68
2022-09-29 00:11:00,,0830.8,5.01,0.00,29.9,27.6,00.0,38.5,31.9,17.5,0000.0,0020.67,0005.04,0003.68
2022-09-29 00:12:00,,0830.7,5.00,0.00,29.9,26.4,00.0,38.4,31.7,17.4,0000.0,0021.28,0005.02,0003.67
2022-09-29 00:13:00,,0830.7,4.99,0.00,29.8,26.4,00.0,38.4,31.6,17.4,0000.0,0021.48,0005.02,0003.67
2022-09-29 00:14:00,,0830.8,5.00,0.00,29.7,26.7,00.0,38.3,31.5,17.5,0000.0,0020.63,0004.98,0003.67
2022-09-29 00:15:00,,0830.8,4.99,0.00,29.7,27.0,00.0,38.3,31.5,17.4,0000.0,0021.23,0004.98,0003.66
2022-09-29 00:16:00,,0830.7,4.99,0.00,29.7,27.4,00.0,38.3,31.5,17.5,0000.0,0021.17,0004.93,0003.64
2022-09-29 00:17:00,,0830.7,5.01,0.00,29.7,27.7,00.0,38.3,31.5,17.5,0000.0,0020.50,0004.87,0003.65
2022-09-29 00:18:00,,0830.7,5.01,0.00,29.7,27.9,00.0,38.3,31.6,17.5,0000.0,0020.26,0004.86,0003.65
2022-09-29 00:19:00,,0830.7,4.98,0.00,29.7,28.1,00.0,38.3,31.6,17.5,0000.0,0019.93,0004.83,0003.65
2022-09-29 00:20:00,,0830.8,5.00,0.00,29.7,28.4,00.0,38.3,31.7,17.4,0000.0,0019.44,0004.84,0003.65
2022-09-29 00:21:00,,0830.7,5.00,0.00,29.8,28.5,00.0,38.4,31.8,17.4,0000.0,0018.77,0004.86,0003.66
2022-09-29 00:22:00,,0830.7,5.01,0.00,29.8,28.7,00.0,38.4,31.8,17.4,0000.0,0017.46,0004.84,0003.67
2022-09-29 00:23:00,,0830.7,5.00,0.00,29.8,28.8,00.0,38.4,31.9,17.3,0000.0,0017.65,0004.83,0003.67
2022-09-29 00:24:00,,0830.7,4.99,0.00,29.9,28.9,00.0,38.4,31.9,17.1,0000.0,0018.03,0004.83,0003.67
2022-09-29 00:25:00,,0830.7,5.02,0.00,29.9,28.1,00.0,38.4,31.9,16.9,0000.0,0017.48,0004.83,0003.66
2022-09-29 00:26:00,,0830.7,5.01,0.00,29.9,26.6,00.0,38.4,31.7,17.0,0000.0,0017.43,0004.90,0003.65
2022-09-29 00:27:00,,0830.8,5.01,0.00,29.8,26.2,00.0,38.4,31.6,17.0,0000.0,0019.18,0004.94,0003.65
2022-09-29 00:28:00,,0830.8,5.00,0.00,29.8,26.5,00.0,38.3,31.5,17.0,0000.0,0019.97,0004.94,0003.63
2022-09-29 00:29:00,,0830.8,5.00,0.00,29.7,26.8,00.0,38.3,31.4,17.0,0000.0,0020.39,0004.98,0003.62
2022-09-29 00:30:00,,0830.8,5.00,0.00,29.6,27.1,00.0,38.3,31.4,17.1,0000.0,0020.33,0004.96,0003.60
2022-09-29 00:31:00,,0830.8,5.01,0.00,29.6,27.5,00.0,38.3,31.5,17.1,0000.0,0018.52,0004.94,0003.59
2022-09-29 00:32:00,,0830.8,5.00,0.00,29.6,27.8,00.0,38.3,31.5,17.0,0000.0,0018.61,0004.90,0003.58
2022-09-29 00:33:00,,0830.8,4.99,0.00,29.7,28.0,00.0,38.3,31.6,17.0,0000.0,0018.14,0004.88,0003.55
2022-09-29 00:34:00,,0830.8,5.01,0.00,29.7,28.2,00.0,38.3,31.6,16.7,0000.0,0017.84,0004.86,0003.54
2022-09-29 00:35:00,,0830.8,4.99,0.00,29.7,28.3,00.0,38.3,31.7,16.4,0000.0,0017.14,0004.80,0003.51
2022-09-29 00:36:00,,0830.8,5.00,0.00,29.7,28.5,00.0,38.3,31.7,16.6,0000.0,0016.81,0004.77,0003.49
2022-09-29 00:37:00,,0830.8,5.01,0.00,29.8,28.7,00.0,38.4,31.8,16.6,0000.0,0016.34,0004.75,0003.49
2022-09-29 00:38:00,,0830.8,5.00,0.00,29.8,28.8,00.0,38.4,31.8,16.5,0000.0,0014.68,0004.71,0003.49
2022-09-29 00:39:00,,0830.8,4.99,0.00,29.9,28.9,00.0,38.4,31.9,16.8,0000.0,0014.26,0004.68,0003.48
2022-09-29 00:40:00,,0830.8,5.02,0.00,29.9,28.7,00.0,38.4,31.9,16.7,0000.0,0013.28,0004.61,0003.49
2022-09-29 00:41:00,,0830.7,5.00,0.00,29.9,27.3,00.0,38.4,31.8,16.8,0000.0,0013.19,0004.62,0003.49
2022-09-29 00:42:00,,0830.7,5.00,0.00,29.8,26.3,00.0,38.4,31.7,16.9,0000.0,0014.07,0004.70,0003.49
2022-09-29 00:43:00,,0830.8,5.00,0.00,29.8,26.4,00.0,38.4,31.6,16.9,0000.0,0014.21,0004.76,0003.50
2022-09-29 00:44:00,,0830.7,5.00,0.00,29.7,26.6,00.0,38.3,31.4,17.1,0000.0,0014.56,0004.75,0003.50
2022-09-29 00:45:00,,0830.8,4.99,0.00,29.6,27.0,00.0,38.3,31.4,17.2,0000.0,0013.81,0004.78,0003.50
2022-09-29 00:46:00,,0830.8,5.00,0.00,29.6,27.3,00.0,38.3,31.5,17.3,0000.0,0014.12,0004.83,0003.52
2022-09-29 00:47:00,,0830.8,5.01,0.00,29.6,27.6,00.0,38.3,31.5,17.5,0000.0,0014.55,0004.86,0003.55
2022-09-29 00:48:00,,0830.8,5.00,0.00,29.6,27.9,00.0,38.3,31.5,17.7,0000.0,0015.33,0004.86,0003.55
2022-09-29 00:49:00,,0830.8,5.00,0.00,29.7,28.1,00.0,38.3,31.6,18.5,0000.0,0016.27,0004.92,0003.56
2022-09-29 00:50:00,,0830.8,4.99,0.00,29.7,28.3,00.0,38.3,31.6,19.0,0000.0,0016.26,0004.93,0003.57
2022-09-29 00:51:00,,0830.8,5.01,0.00,29.7,28.4,00.0,38.3,31.7,18.2,0000.0,0017.66,0004.97,0003.57
2022-09-29 00:52:00,,0830.8,5.00,0.00,29.7,28.5,00.0,38.3,31.7,18.0,0000.0,0018.81,0005.02,0003.59
2022-09-29 00:53:00,,0830.7,5.00,0.00,29.8,28.7,00.0,38.4,31.8,17.5,0000.0,0018.35,0004.99,0003.58
2022-09-29 00:54:00,,0830.8,5.02,0.00,29.8,28.8,00.0,38.4,31.8,17.3,0000.0,0018.68,0005.00,0003.58
2022-09-29 00:55:00,,0830.8,4.99,0.00,29.9,28.9,00.0,38.4,31.9,17.3,0000.0,0018.39,0005.00,0003.59
2022-09-29 00:56:00,,0830.7,5.01,0.00,29.9,29.0,00.0,38.5,31.9,17.1,0000.0,0017.89,0004.98,0003.60
2022-09-29 00:57:00,,0830.7,4.99,0.00,29.9,28.1,00.0,38.5,31.9,16.9,0000.0,0018.03,0004.96,0003.60
2022-09-29 00:58:00,,0830.7,5.00,0.00,29.9,27.0,00.0,38.4,31.7,16.5,0000.0,0018.39,0004.97,0003.60
2022-09-29 00:59:00,,0830.7,5.00,0.00,29.9,26.9,00.0,38.4,31.7,16.4,0000.0,0017.73,0004.92,0003.61
